Retour au catalogue

KUIPER-00039

ActifCommunicationsLEO
NORAD 64500·PAYLOAD·🇺🇸 United States

Lancé Jun 23, 2025 depuis Cape Canaveral Space Force Station

Loading…

Prochains Passages (prochaines 24 heures)

TLE

FraisSource: CelesTrak SupGP

Époque: Sep 14, 2026, 21:55 UTC

1 64500C 25134A   26257.91365741 -.00007466  00000+0 -97765-3 0  2576
2 64500  51.8994 116.3709 0000834 103.7493 241.6810 14.79926873    11

Suivez KUIPER-00039 en temps réel avec AllMySat

Download on the App Store